Date String (YYYY-MM-DD hh:mm:ss) UTC,Instrument flags,absolute air pressure of the measurement (hPa),sample flow rate (lpm),inlet stack bypass flow (lpm),air temperature of the measurement (°C),ambient temperature measured by the external sensor (°C),aerosol sample conditioner tube jacket temperature (°C),OPC LED temperature (°C),internal box temperature (°C),relative humidity of the measurement (%),span deviation,mass concentration of particles derived from Lorenz-Mie calculation of OPC scattering (μg/m³),mass concentration of particles derived from Lorenz-Mie calculation of OPC scattering (μg/m³),mass concentration of particles derived from Lorenz-Mie calculation of OPC scattering (μg/m³)
DateTimeUTC,F1_M11,P_M11,Q1_M11,Q2_M11,T1_M11,T2_M11,T3_M11,T4_M11,T5_M11,U1_M11,ZSPAN_M11,X0_M11,X2_M11,X1_M11
2024-02-19 15:00:00,SystemResetWarning,0826.2,4.99,000.00,018.4,017.7,000.0,026.8,020.0,11.1,0000.0,0001.78,0000.59,0000.43
2024-02-19 15:01:00,SystemResetWarning,0826.1,5.00,000.00,018.4,017.7,000.0,026.8,020.0,11.2,0000.0,0001.82,0000.59,0000.43
2024-02-19 15:02:00,SystemResetWarning,0826.1,5.01,000.00,018.3,017.7,000.0,026.8,020.0,11.4,0000.0,0001.83,0000.58,0000.43
2024-02-19 15:03:00,SystemResetWarning,0826.1,5.01,000.00,018.3,017.7,000.0,026.8,020.0,10.8,0000.0,0001.77,0000.56,0000.42
2024-02-19 15:04:00,SystemResetWarning,0826.1,4.99,000.00,018.3,017.7,000.0,026.8,020.0,10.9,0000.0,0001.73,0000.55,0000.41
2024-02-19 15:05:00,SystemResetWarning,0826.1,5.00,000.00,018.3,017.7,000.0,026.8,020.0,11.2,0000.0,0001.74,0000.55,0000.41
2024-02-19 15:06:00,SystemResetWarning,0826.1,5.01,000.00,018.3,017.7,000.0,026.8,020.0,11.2,0000.0,0001.04,0000.56,0000.40
2024-02-19 15:07:00,SystemResetWarning,0826.1,5.00,000.00,018.3,017.7,000.0,026.8,020.0,11.4,0000.0,0001.03,0000.56,0000.41
2024-02-19 15:08:00,SystemResetWarning,0826.2,5.00,000.00,018.3,017.7,000.0,026.8,020.0,11.2,0000.0,0000.91,0000.53,0000.40
2024-02-19 15:09:00,SystemResetWarning,0826.2,5.00,000.00,018.3,017.7,000.0,026.8,020.0,11.3,0000.0,0000.92,0000.51,0000.40
2024-02-19 15:10:00,SystemResetWarning,0826.2,5.00,000.00,018.3,017.7,000.0,026.8,020.0,10.9,0000.0,0000.93,0000.52,0000.39
2024-02-19 15:11:00,SystemResetWarning,0826.2,4.99,000.00,018.3,017.7,000.0,026.8,020.0,10.8,0000.0,0000.92,0000.51,0000.38
2024-02-19 15:12:00,SystemResetWarning,0826.2,4.99,000.00,018.3,017.7,000.0,026.8,020.0,10.7,0000.0,0000.88,0000.50,0000.38
2024-02-19 15:13:00,SystemResetWarning,0826.2,5.00,000.00,018.3,017.7,000.0,026.8,020.0,11.0,0000.0,0000.83,0000.52,0000.38
2024-02-19 15:14:00,SystemResetWarning,0826.2,5.01,000.00,018.3,017.8,000.0,026.8,020.0,11.2,0000.0,0000.81,0000.51,0000.38
2024-02-19 15:15:00,SystemResetWarning,0826.2,5.01,000.00,018.3,017.8,000.0,026.8,020.0,10.7,0000.0,0001.90,0000.51,0000.39
2024-02-19 15:16:00,SystemResetWarning,0826.2,4.99,000.00,018.3,017.8,000.0,026.8,020.0,10.9,0000.0,0001.99,0000.50,0000.38
2024-02-19 15:17:00,SystemResetWarning,0826.2,4.99,000.00,018.3,017.8,000.0,026.8,020.0,10.8,0000.0,0002.00,0000.50,0000.39
2024-02-19 15:18:00,SystemResetWarning,0826.2,5.00,000.00,018.3,017.8,000.0,026.8,020.0,10.9,0000.0,0002.15,0000.50,0000.38
2024-02-19 15:19:00,SystemResetWarning,0826.2,5.00,000.00,018.3,017.8,000.0,026.8,020.0,10.3,0000.0,0002.91,0000.51,0000.38
2024-02-19 15:20:00,SystemResetWarning,0826.3,5.01,000.00,018.3,017.8,000.0,026.8,020.0,10.3,0000.0,0002.83,0000.51,0000.38
2024-02-19 15:21:00,SystemResetWarning,0826.3,5.00,000.00,018.3,017.8,000.0,026.8,020.0,10.2,0000.0,0002.85,0000.53,0000.39
2024-02-19 15:22:00,SystemResetWarning,0826.2,4.99,000.00,018.3,017.8,000.0,026.8,020.0,09.9,0000.0,0002.83,0000.53,0000.39
2024-02-19 15:23:00,SystemResetWarning,0826.2,4.99,000.00,018.3,017.8,000.0,026.8,020.0,10.3,0000.0,0002.84,0000.53,0000.39
2024-02-19 15:24:00,SystemResetWarning,0826.3,5.01,000.00,018.3,017.8,000.0,026.8,020.0,10.9,0000.0,0002.77,0000.49,0000.38
2024-02-19 15:25:00,SystemResetWarning,0826.3,5.01,000.00,018.3,017.8,000.0,026.8,020.0,10.8,0000.0,0002.84,0000.51,0000.38
2024-02-19 15:26:00,SystemResetWarning,0826.3,5.00,000.00,018.3,017.8,000.0,026.8,020.1,10.1,0000.0,0001.73,0000.51,0000.38
2024-02-19 15:27:00,SystemResetWarning,0826.3,5.01,000.00,018.3,017.8,000.0,026.8,020.0,09.9,0000.0,0001.64,0000.50,0000.39
2024-02-19 15:28:00,SystemResetWarning,0826.3,4.99,000.00,018.3,017.9,000.0,026.8,020.0,10.1,0000.0,0001.59,0000.50,0000.39
2024-02-19 15:29:00,SystemResetWarning,0826.4,4.99,000.00,018.3,017.9,000.0,026.8,020.1,10.4,0000.0,0001.41,0000.49,0000.39
2024-02-19 15:30:00,SystemResetWarning,0826.4,5.00,000.00,018.4,017.9,000.0,026.8,020.1,10.1,0000.0,0000.70,0000.49,0000.40
2024-02-19 15:31:00,SystemResetWarning,0826.2,5.01,000.00,018.4,017.9,000.0,026.8,020.0,10.0,0000.0,0000.69,0000.49,0000.40
2024-02-19 15:32:00,SystemResetWarning,0826.3,5.00,000.00,018.4,017.9,000.0,026.8,020.1,09.8,0000.0,0000.67,0000.47,0000.39
2024-02-19 15:33:00,SystemResetWarning,0826.3,4.99,000.00,018.4,017.9,000.0,026.8,020.1,09.3,0000.0,0000.81,0000.48,0000.39
2024-02-19 15:34:00,SystemResetWarning,0826.4,5.00,000.00,018.4,017.9,000.0,026.8,020.1,09.4,0000.0,0000.90,0000.50,0000.39
2024-02-19 15:35:00,SystemResetWarning,0826.4,5.00,000.00,018.4,017.9,000.0,026.8,020.1,09.6,0000.0,0000.96,0000.53,0000.40
2024-02-19 15:36:00,SystemResetWarning,0826.3,4.99,000.00,018.4,018.0,000.0,026.8,020.1,09.9,0000.0,0001.06,0000.53,0000.40
2024-02-19 15:37:00,SystemResetWarning,0826.4,5.00,000.00,018.4,018.0,000.0,026.7,020.1,10.2,0000.0,0001.56,0000.54,0000.40
2024-02-19 15:38:00,SystemResetWarning,0826.4,5.00,000.00,018.4,018.0,000.0,026.8,020.1,10.6,0000.0,0001.58,0000.54,0000.40
2024-02-19 15:39:00,SystemResetWarning,0826.2,5.00,000.00,018.4,018.0,000.0,026.8,020.1,10.9,0000.0,0001.59,0000.54,0000.40
2024-02-19 15:40:00,SystemResetWarning,0826.2,5.00,000.00,018.4,018.0,000.0,026.8,020.1,10.2,0000.0,0001.59,0000.55,0000.40
2024-02-19 15:41:00,SystemResetWarning,0826.2,5.00,000.00,018.4,018.0,000.0,026.8,020.2,10.2,0000.0,0002.37,0000.53,0000.39
2024-02-19 15:42:00,SystemResetWarning,0826.2,5.01,000.00,018.4,018.0,000.0,026.8,020.2,10.3,0000.0,0002.56,0000.53,0000.39
2024-02-19 15:43:00,SystemResetWarning,0826.2,5.00,000.00,018.5,018.0,000.0,026.8,020.2,10.2,0000.0,0002.53,0000.52,0000.39
2024-02-19 15:44:00,SystemResetWarning,0826.3,4.99,000.00,018.5,018.1,000.0,026.8,020.2,10.2,0000.0,0002.39,0000.50,0000.39
2024-02-19 15:45:00,SystemResetWarning,0826.4,5.00,000.00,018.5,018.1,000.0,026.8,020.2,09.8,0000.0,0002.41,0000.51,0000.39
2024-02-19 15:46:00,SystemResetWarning,0826.3,4.99,000.00,018.5,018.1,000.0,026.8,020.2,09.9,0000.0,0002.55,0000.55,0000.40
2024-02-19 15:47:00,SystemResetWarning,0826.2,5.01,000.00,018.5,018.1,000.0,026.8,020.2,10.0,0000.0,0002.52,0000.55,0000.40
2024-02-19 15:48:00,SystemResetWarning,0826.3,5.01,000.00,018.5,018.1,000.0,026.8,020.2,09.7,0000.0,0001.97,0000.55,0000.40
2024-02-19 15:49:00,SystemResetWarning,0826.4,5.01,000.00,018.5,018.1,000.0,026.8,020.2,09.3,0000.0,0002.03,0000.58,0000.40
2024-02-19 15:50:00,SystemResetWarning,0826.4,4.99,000.00,018.5,018.2,000.0,026.9,020.2,09.8,0000.0,0002.15,0000.63,0000.43
2024-02-19 15:51:00,SystemResetWarning,0826.3,5.00,000.00,018.5,018.2,000.0,026.9,020.2,09.8,0000.0,0002.34,0000.67,0000.46
2024-02-19 15:52:00,SystemResetWarning,0826.3,5.00,000.00,018.5,018.2,000.0,026.9,020.3,09.8,0000.0,0001.94,0000.72,0000.51
2024-02-19 15:53:00,SystemResetWarning,0826.3,4.99,000.00,018.6,018.2,000.0,026.9,020.3,09.8,0000.0,0001.47,0000.77,0000.54
2024-02-19 15:54:00,SystemResetWarning,0826.3,5.00,000.00,018.6,018.2,000.0,026.9,020.3,10.6,0000.0,0001.53,0000.80,0000.55
2024-02-19 15:55:00,SystemResetWarning,0826.3,5.00,000.00,018.6,018.2,000.0,026.9,020.3,10.7,0000.0,0001.56,0000.81,0000.56
2024-02-19 15:56:00,SystemResetWarning,0826.3,5.00,000.00,018.6,018.2,000.0,026.9,020.3,09.8,0000.0,0002.06,0000.83,0000.57
2024-02-19 15:57:00,SystemResetWarning,0826.4,5.00,000.00,018.6,018.2,000.0,026.9,020.3,09.9,0000.0,0001.95,0000.78,0000.57
2024-02-19 15:58:00,SystemResetWarning,0826.4,5.00,000.00,018.6,018.2,000.0,026.9,020.3,09.6,0000.0,0001.87,0000.76,0000.58
2024-02-19 15:59:00,SystemResetWarning,0826.4,5.00,000.00,018.6,018.2,000.0,026.9,020.4,09.5,0000.0,0001.83,0000.74,0000.59
